K0QMS Weather Reports


time (UTC)temp
F
wind
direction
speed
knots
gust
knots
rain 1hr
in
rain 24hr
in
rain mn
in
humidity
%
barometer
mb
20260507212920 84 22 1.7 1.7 0.00 0.00 0.00 14
20260507212017 85 22 4.3 4.3 0.00 0.00 0.00 13
20260507211033 0 0 0.0 0.0 0.00 0.00 0.00 100
20260507210019 86 67 0.9 0.9 0.00 0.00 0.00 13
20260507205034 0 0 0.0 0.0 0.00 0.00 0.00 100
20260507204018 0 0 0.0 0.0 0.00 0.00 0.00 100
20260507203017 86 67 5.2 5.2 0.00 0.00 0.00 14
20260507202018 0 0 0.0 0.0 0.00 0.00 0.00 100
20260507201017 0 0 0.0 0.0 0.00 0.00 0.00 100
20260507200017 84 22 1.7 1.7 0.00 0.00 0.00 14
20260507195016 84 90 0.9 0.9 0.00 0.00 0.00 15
20260507194018 83 292 2.6 2.6 0.00 0.00 0.00 15
20260507193918 83 292 2.6 2.6 0.00 0.00 0.00 15
20260507192919 84 23 0.9 1.7 0.00 0.00 0.00 15
20260507192017 84 60 6.1 7.0 0.00 0.00 0.00 16
20260507191106 0 0 0.0 0.0 0.00 0.00 0.00 100
20260507185107 85 314 0.9 2.6 0.00 0.00 0.00 16
20260507184109 83 45 0.0 0.0 0.00 0.00 0.00 16
20260507183109 83 67 4.3 7.0 0.00 0.00 0.00 18
20260507182206 82 73 3.5 6.1 0.00 0.00 0.00 17
20260507181209 82 45 3.5 3.5 0.00 0.00 0.00 18
20260507180208 81 34 3.5 5.2 0.00 0.00 0.00 19
20260507175307 81 75 1.7 4.3 0.00 0.00 0.00 20
20260507174308 81 67 5.2 5.2 0.00 0.00 0.00 21
20260507173308 80 56 0.0 0.9 0.00 0.00 0.00 22
20260507172407 79 225 0.0 0.9 0.00 0.00 0.00 22
20260507171409 78 112 0.0 0.0 0.00 0.00 0.00 24
20260507170409 78 284 0.0 1.7 0.00 0.00 0.00 25
20260507165408 77 270 0.0 0.9 0.00 0.00 0.00 24
20260507164506 77 6 0.9 2.6 0.00 0.00 0.00 25
20260507163509 77 270 0.0 0.9 0.00 0.00 0.00 27
20260507162510 75 292 0.9 2.6 0.00 0.00 0.00 26
20260507161509 75 195 0.0 0.9 0.00 0.00 0.00 28
20260507160608 74 157 1.7 3.5 0.00 0.00 0.00 29
20260507154609 72 166 1.7 1.7 0.00 0.00 0.00 30
20260507153707 72 157 0.0 0.0 0.00 0.00 0.00 31
20260507152708 70 168 0.9 1.7 0.00 0.00 0.00 30
20260507151806 69 165 0.9 1.7 0.00 0.00 0.00 32
20260507150809 68 193 0.9 1.7 0.00 0.00 0.00 33
20260507145806 67 212 2.6 3.5 0.00 0.00 0.00 35
20260507145708 67 200 2.6 3.5 0.00 0.00 0.00 35
20260507144709 65 180 0.9 1.7 0.00 0.00 0.00 37
20260507143709 64 247 0.0 0.0 0.00 0.00 0.00 38
20260507142808 63 214 2.6 3.5 0.00 0.00 0.00 40
20260507141809 61 187 3.5 4.3 0.00 0.00 0.00 45
20260507140807 59 189 0.9 2.6 0.00 0.00 0.00 48
20260507135906 57 188 0.9 1.7 0.00 0.00 0.00 49
20260507134909 55 202 1.7 1.7 0.00 0.00 0.00 53
20260507133909 53 180 0.9 0.9 0.00 0.00 0.00 55
20260507132908 51 157 1.7 2.6 0.00 0.00 0.00 57
20260507131008 48 202 0.0 0.0 0.00 0.00 0.00 62
20260507130007 47 180 0.9 1.7 0.00 0.00 0.00 63
20260507125011 48 195 0.0 0.0 0.00 0.00 0.00 61
20260507124108 48 202 0.0 0.0 0.00 0.00 0.00 59
20260507123207 49 202 0.0 0.9 0.00 0.00 0.00 57
20260507122209 49 202 0.0 0.9 0.00 0.00 0.00 58
20260507121306 48 198 0.9 1.7 0.00 0.00 0.00 59
20260507120308 49 157 0.9 0.9 0.00 0.00 0.00 60
20260507114307 49 202 0.0 0.0 0.00 0.00 0.00 59
20260507113308 49 292 0.0 0.0 0.00 0.00 0.00 60
20260507112311 49 292 0.0 0.0 0.00 0.00 0.00 59
20260507111407 50 292 0.0 0.0 0.00 0.00 0.00 56
20260507105410 52 292 0.0 0.0 0.00 0.00 0.00 48
20260507104409 52 292 0.0 0.9 0.00 0.00 0.00 48
20260507103409 53 292 0.0 0.9 0.00 0.00 0.00 48
20260507100507 52 292 0.0 0.0 0.00 0.00 0.00 47
20260507095507 53 292 0.0 0.0 0.00 0.00 0.00 47
20260507093608 53 292 0.0 0.0 0.00 0.00 0.00 46
20260507092609 53 292 0.0 0.0 0.00 0.00 0.00 46
20260507090607 53 315 0.0 0.0 0.00 0.00 0.00 47
20260507085706 53 315 0.0 0.0 0.00 0.00 0.00 47
20260507085608 53 315 0.0 0.0 0.00 0.00 0.00 47
20260507084609 54 315 0.0 0.0 0.00 0.00 0.00 46
20260507083706 53 315 0.9 0.9 0.00 0.00 0.00 49
20260507082708 54 315 0.9 0.9 0.00 0.00 0.00 47
20260507081707 54 315 0.0 0.0 0.00 0.00 0.00 45
20260507075809 55 315 0.0 0.0 0.00 0.00 0.00 45
20260507074843 56 315 0.0 0.0 0.00 0.00 0.00 43
20260507073907 56 315 0.9 1.7 0.00 0.00 0.00 42
20260507072909 56 315 0.0 0.0 0.00 0.00 0.00 40
20260507072007 56 315 0.0 0.0 0.00 0.00 0.00 40
20260507071009 57 315 0.0 0.0 0.00 0.00 0.00 38
20260507070034 57 315 0.0 0.0 0.00 0.00 0.00 38
20260507065030 58 315 0.0 0.0 0.00 0.00 0.00 36
20260507064032 58 315 0.0 0.0 0.00 0.00 0.00 35
20260507063130 59 315 0.0 0.0 0.00 0.00 0.00 34
20260507062132 59 315 0.0 0.0 0.00 0.00 0.00 34
20260507061148 59 315 0.0 0.0 0.00 0.00 0.00 35
20260507060233 60 315 0.0 0.0 0.00 0.00 0.00 33
20260507055330 59 315 0.0 0.0 0.00 0.00 0.00 35
20260507053331 60 315 0.0 0.0 0.00 0.00 0.00 33
20260507052332 61 315 0.0 0.0 0.00 0.00 0.00 32
20260507051331 61 90 0.0 0.0 0.00 0.00 0.00 31
20260507050431 62 90 0.0 0.0 0.00 0.00 0.00 30
20260507045434 63 90 0.0 0.0 0.00 0.00 0.00 28
20260507044432 65 90 0.0 0.0 0.00 0.00 0.00 26
20260507042432 67 45 0.0 0.9 0.00 0.00 0.00 24
20260507041430 68 22 1.7 1.7 0.00 0.00 0.00 22
20260507035430 67 90 0.9 0.9 0.00 0.00 0.00 25
20260507034431 68 45 2.6 2.6 0.00 0.00 0.00 23
20260507033431 68 67 0.0 0.0 0.00 0.00 0.00 24
20260507032433 69 67 1.7 1.7 0.00 0.00 0.00 24
20260507031430 0 0 0.0 0.0 0.00 0.00 0.00 100
20260507030430 69 22 0.9 0.9 0.00 0.00 0.00 22
20260507025430 70 22 1.7 1.7 0.00 0.00 0.00 22
20260507024429 0 0 0.0 0.0 0.00 0.00 0.00 100
20260507023430 71 22 2.6 2.6 0.00 0.00 0.00 21
20260507022519 0 0 0.0 0.0 0.00 0.00 0.00 100
20260507021518 0 0 0.0 0.0 0.00 0.00 0.00 100
20260507020520 73 360 1.7 1.7 0.00 0.00 0.00 21
20260507015519 74 22 3.5 3.5 0.00 0.00 0.00 20
20260507014518 76 45 1.7 1.7 0.00 0.00 0.00 20
20260507012619 77 67 0.9 0.9 0.00 0.00 0.00 19
20260507011717 78 22 1.7 1.7 0.00 0.00 0.00 18
20260507010734 78 67 1.7 1.7 0.00 0.00 0.00 19
20260507005719 78 67 1.7 1.7 0.00 0.00 0.00 18
20260507004718 0 0 0.0 0.0 0.00 0.00 0.00 100
20260507003717 0 0 0.0 0.0 0.00 0.00 0.00 100
20260507002718 0 0 0.0 0.0 0.00 0.00 0.00 100
20260507001718 0 0 0.0 0.0 0.00 0.00 0.00 100
20260507000817 0 0 0.0 0.0 0.00 0.00 0.00 100
20260506235819 0 0 0.0 0.0 0.00 0.00 0.00 100
20260506234820 81 157 1.7 1.7 0.00 0.00 0.00 17
20260506233818 81 112 1.7 1.7 0.00 0.00 0.00 15
20260506232916 0 0 0.0 0.0 0.00 0.00 0.00 100
20260506231918 81 112 2.6 2.6 0.00 0.00 0.00 17
20260506230017 0 0 0.0 0.0 0.00 0.00 0.00 100
20260506225116 0 0 0.0 0.0 0.00 0.00 0.00 100
20260506224118 0 0 0.0 0.0 0.00 0.00 0.00 100
20260506223116 0 0 0.0 0.0 0.00 0.00 0.00 100
20260506222120 0 0 0.0 0.0 0.00 0.00 0.00 100
20260506221120 79 202 0.9 0.9 0.00 0.00 0.00 19
20260506220118 79 44 2.6 3.5 0.00 0.00 0.00 19
20260506215117 0 0 0.0 0.0 0.00 0.00 0.00 100
20260506214117 79 90 1.7 1.7 0.00 0.00 0.00 21